Date String (YYYY-MM-DD hh:mm:ss) UTC,Instrument flags,Ambient pressure (hPa),Sample flow (lpm),Bypass flow (lpm),Sample temperature (°C),Ambient temperature (°C),ASC tube jacket temperature (°C),LED temperature (°C),Box temperature (°C),Sample RH (%),Span deviation,Mass concentration (μg/m³),Mass concentration (μg/m³),Mass concentration (μg/m³)
DateTimeUTC,F1_M11,P_M11,Q1_M11,Q2_M11,T1_M11,T2_M11,T3_M11,T4_M11,T5_M11,U1_M11,ZSPAN_M11,X0_M11,X2_M11,X1_M11
2022-08-30 17:00:00,,0834.3,4.98,0.00,29.7,28.4,00.0,38.3,31.6,26.5,0000.0,0019.56,0007.34,0006.10
2022-08-30 17:01:00,,0834.3,5.00,0.00,29.7,28.6,00.0,38.3,31.6,26.2,0000.0,0020.12,0007.34,0006.09
2022-08-30 17:02:00,,0834.3,5.00,0.00,29.7,28.5,00.0,38.4,31.7,25.5,0000.0,0019.79,0007.30,0006.09
2022-08-30 17:03:00,,0834.3,5.00,0.00,29.7,27.5,00.0,38.3,31.6,25.9,0000.0,0019.03,0007.32,0006.09
2022-08-30 17:04:00,,0834.3,5.00,0.00,29.7,26.7,00.0,38.3,31.4,26.4,0000.0,0018.25,0007.32,0006.08
2022-08-30 17:05:00,,0834.3,5.00,0.00,29.6,26.8,00.0,38.3,31.4,26.6,0000.0,0019.04,0007.37,0006.09
2022-08-30 17:06:00,,0834.3,5.00,0.00,29.6,27.0,00.0,38.2,31.3,26.4,0000.0,0018.88,0007.40,0006.10
2022-08-30 17:07:00,,0834.3,4.99,0.00,29.5,27.3,00.0,38.2,31.3,26.3,0000.0,0018.63,0007.42,0006.10
2022-08-30 17:08:00,,0834.3,5.00,0.00,29.5,27.6,00.0,38.2,31.3,25.9,0000.0,0017.68,0007.38,0006.08
2022-08-30 17:09:00,,0834.3,5.00,0.00,29.5,27.9,00.0,38.2,31.4,26.5,0000.0,0018.29,0007.37,0006.10
2022-08-30 17:10:00,,0834.3,5.00,0.00,29.6,28.1,00.0,38.2,31.4,27.0,0000.0,0020.39,0007.42,0006.13
2022-08-30 17:11:00,,0834.3,5.01,0.00,29.6,28.3,00.0,38.2,31.5,27.0,0000.0,0021.33,0007.44,0006.16
2022-08-30 17:12:00,,0834.3,4.99,0.00,29.6,28.4,00.0,38.3,31.5,27.0,0000.0,0021.45,0007.48,0006.18
2022-08-30 17:13:00,,0834.3,5.01,0.00,29.6,28.6,00.0,38.3,31.6,26.6,0000.0,0021.26,0007.54,0006.19
2022-08-30 17:14:00,,0834.3,5.00,0.00,29.7,28.6,00.0,38.3,31.6,26.8,0000.0,0021.12,0007.54,0006.22
2022-08-30 17:15:00,,0834.3,5.00,0.00,29.7,27.9,00.0,38.3,31.6,26.8,0000.0,0020.44,0007.60,0006.23
2022-08-30 17:16:00,,0834.3,5.00,0.00,29.6,26.8,00.0,38.3,31.4,26.9,0000.0,0020.57,0007.58,0006.26
2022-08-30 17:17:00,,0834.3,5.00,0.00,29.6,26.7,00.0,38.2,31.4,27.0,0000.0,0020.79,0007.63,0006.29
2022-08-30 17:18:00,,0834.3,5.01,0.00,29.6,27.0,00.0,38.2,31.3,27.3,0000.0,0021.91,0007.65,0006.30
2022-08-30 17:19:00,,0834.3,5.01,0.00,29.5,27.2,00.0,38.2,31.3,27.8,0000.0,0022.64,0007.72,0006.32
2022-08-30 17:20:00,,0834.3,4.99,0.00,29.5,27.5,00.0,38.2,31.3,27.6,0000.0,0021.59,0007.77,0006.33
2022-08-30 17:21:00,,0834.3,5.00,0.00,29.5,27.8,00.0,38.2,31.3,27.3,0000.0,0019.16,0007.74,0006.33
2022-08-30 17:22:00,,0834.3,5.00,0.00,29.5,28.0,00.0,38.2,31.4,27.3,0000.0,0018.32,0007.71,0006.32
2022-08-30 17:23:00,,0834.3,5.01,0.00,29.6,28.2,00.0,38.2,31.4,26.6,0000.0,0018.32,0007.70,0006.31
2022-08-30 17:24:00,,0834.3,5.01,0.00,29.6,28.4,00.0,38.2,31.5,26.5,0000.0,0018.38,0007.70,0006.30
2022-08-30 17:25:00,,0834.3,4.98,0.00,29.6,28.5,00.0,38.3,31.6,26.4,0000.0,0018.48,0007.72,0006.30
2022-08-30 17:26:00,,0834.3,5.00,0.00,29.7,28.5,00.0,38.3,31.6,26.4,0000.0,0018.53,0007.72,0006.28
2022-08-30 17:27:00,,0834.3,5.01,0.00,29.7,27.5,00.0,38.3,31.6,27.1,0000.0,0017.57,0007.74,0006.26
2022-08-30 17:28:00,,0834.3,5.00,0.00,29.6,26.7,00.0,38.2,31.4,26.7,0000.0,0017.30,0007.68,0006.25
2022-08-30 17:29:00,,0834.3,4.99,0.00,29.6,26.8,00.0,38.2,31.4,26.7,0000.0,0016.45,0007.63,0006.25
2022-08-30 17:30:00,,0834.3,5.00,0.00,29.5,27.1,00.0,38.2,31.3,27.3,0000.0,0016.16,0007.62,0006.25
2022-08-30 17:31:00,,0834.3,5.01,0.00,29.5,27.3,00.0,38.2,31.3,27.3,0000.0,0017.52,0007.59,0006.24
2022-08-30 17:32:00,,0834.3,5.00,0.00,29.5,27.6,00.0,38.2,31.3,27.1,0000.0,0018.18,0007.62,0006.25
2022-08-30 17:33:00,,0834.3,5.00,0.00,29.5,27.9,00.0,38.2,31.4,27.0,0000.0,0017.97,0007.61,0006.26
2022-08-30 17:34:00,,0834.3,5.00,0.00,29.5,28.1,00.0,38.2,31.4,27.2,0000.0,0017.97,0007.59,0006.28
2022-08-30 17:35:00,,0834.3,5.01,0.00,29.6,28.3,00.0,38.2,31.5,27.3,0000.5,0018.33,0007.61,0006.28
2022-08-30 17:36:00,,0834.3,4.98,0.00,29.6,28.5,00.0,38.2,31.5,27.4,0000.6,0018.23,0007.61,0006.27
2022-08-30 17:37:00,,0834.3,5.00,0.00,29.6,28.1,00.0,38.2,31.5,27.8,0000.0,0018.56,0007.59,0006.29
2022-08-30 17:38:00,,0834.3,5.00,0.00,29.6,27.0,00.0,38.2,31.4,27.8,0000.0,0018.55,0007.57,0006.30
2022-08-30 17:39:00,,0834.3,5.02,0.00,29.5,26.5,00.0,38.2,31.3,27.6,0000.0,0019.19,0007.60,0006.31
2022-08-30 17:40:00,,0834.3,5.00,0.00,29.5,26.8,00.0,38.1,31.3,28.0,0000.0,0018.98,0007.67,0006.32
2022-08-30 17:41:00,,0834.3,5.00,0.00,29.5,27.1,00.0,38.1,31.2,27.9,0000.0,0019.92,0007.67,0006.33
2022-08-30 17:42:00,,0834.3,4.99,0.00,29.4,27.4,00.0,38.1,31.2,28.1,0000.4,0020.18,0007.70,0006.34
2022-08-30 17:43:00,,0834.2,4.99,0.00,29.5,27.7,00.0,38.1,31.3,28.1,0000.0,0019.93,0007.75,0006.35
2022-08-30 17:44:00,,0834.2,5.00,0.00,29.5,27.9,00.0,38.1,31.3,28.5,0000.0,0021.04,0007.78,0006.37
2022-08-30 17:45:00,,0834.3,5.00,0.00,29.5,28.1,00.0,38.1,31.4,28.3,0000.0,0021.06,0007.84,0006.39
2022-08-30 17:46:00,,0834.3,5.01,0.00,29.5,28.3,00.0,38.2,31.4,28.4,0000.0,0021.42,0007.92,0006.41
2022-08-30 17:47:00,,0834.3,4.98,0.00,29.5,28.4,00.0,38.2,31.5,28.1,0000.0,0021.76,0007.98,0006.44
2022-08-30 17:48:00,,0834.3,5.00,0.00,29.6,28.3,00.0,38.2,31.5,27.9,0000.0,0023.08,0007.99,0006.45
2022-08-30 17:49:00,,0834.2,5.00,0.00,29.6,27.3,00.0,38.2,31.4,27.9,0000.0,0023.51,0008.04,0006.48
2022-08-30 17:50:00,,0834.2,5.00,0.00,29.5,26.6,00.0,38.2,31.3,28.1,0000.0,0024.47,0008.09,0006.50
2022-08-30 17:51:00,,0834.1,5.01,0.00,29.5,26.7,00.0,38.1,31.3,28.2,0000.0,0024.85,0008.08,0006.51
2022-08-30 17:52:00,,0834.2,5.00,0.00,29.4,27.0,00.0,38.1,31.2,28.2,0000.0,0024.56,0008.08,0006.52
2022-08-30 17:53:00,,0834.1,5.00,0.00,29.4,27.3,00.0,38.1,31.2,28.1,0000.0,0023.44,0008.09,0006.53
2022-08-30 17:54:00,,0834.2,5.00,0.00,29.4,27.6,00.0,38.1,31.2,28.3,0000.0,0023.88,0008.06,0006.53
2022-08-30 17:55:00,,0834.1,5.00,0.00,29.4,27.8,00.0,38.1,31.3,28.4,0000.0,0022.62,0008.05,0006.53
2022-08-30 17:56:00,,0834.1,5.01,0.00,29.5,28.1,00.0,38.1,31.3,28.1,0000.0,0022.53,0008.01,0006.50
2022-08-30 17:57:00,,0834.1,5.00,0.00,29.5,28.2,00.0,38.1,31.4,27.6,0000.0,0021.56,0007.97,0006.50
2022-08-30 17:58:00,,0834.1,4.99,0.00,29.5,28.4,00.0,38.1,31.4,27.2,0000.0,0021.35,0007.92,0006.50
2022-08-30 17:59:00,,0834.1,5.00,0.00,29.6,28.0,00.0,38.1,31.5,27.7,0000.0,0020.13,0007.91,0006.50
